Showing default

TJS-1, 40892

Orbit data source: Space-Track

TJS-1, 40892 is a payload satellite owned by CASC (CN) in GEO that was launched on Sat, 12 Sep 2015 UTC via a CHANG ZHENG 3B launch vehicle from the Xichang Space Center, China (XSC). Payloads include a variety of satellites, spacecraft, and rockets equipped with specific instruments for various scientific and technological missions. These include communications satellites like Starlink; space stations such as the ISS; scientific satellites like the Hubble; Earth observation satellites from companies like Planet Labs, Umbra, and HawkEye 360; GPS; miniature CubeSats for education and research; and military/defense satellites.

Not visible in the next 10 days
TJS-1 details
Identifier
40892, 2015-046A
Orbit
GEO
Last TLE update8 hours ago
Origin
Flag of CNCASC (CN / PRC)
ManufacturerCAST
MissionOperational Defense Communications
Bus & MotorDFH-4?, DFH-4 LAE
Mass~4,000 kg wet, ~2,500 kg dry
Launch date (UTC)
2015-09-12 (9 years ago)
Launch vehicle
CHANG ZHENG 3B
Launch site
Xichang Space Center, China (XSC)
Object type
Payload
Rocket body
Debris
Shape & HBRBox + 2 Pan, 30 m
Radar Cross Section34.063 m², Large (>1 m²)

Expand to show TLE details & history

TLE from 8 hours ago
0 TJS-1
1 40892U 15046A   24346.58174363 -.00000140  00000-0  00000-0 0  9991
2 40892   0.0160 310.9114 0007056 350.8083 143.5098  1.00270786 34026
Epoch: 2024-12-11T13:57Z
Definitive object data (Epoch: 2024-12-11T13:57:42.649Z)
Latitude0.0297°
Longitude155.0593°
Altitude35,810.349 km
Speed3.073 km/s
True Right ascension05h 41m 02s
True Declination0° 01' 47"
Sunlit
Object was in daylight at TLE epoch
Visualization TLE readout
Latitude-0.03475°
Longitude-85.48226°
Altitude35,789.853 km
Speed3.074 km/s
Apparent Right ascension13h 13m 16s
Apparent Declination-5° 24' 23"
Sunlit
Object is in daylight
Visualization observer readout
Local Sidereal Time20:18:41
Azimuth276.425° WNW
Elevation-15.987°
Doppler factor1
Orbital elements
Apogee altitude35,817.698 km
Perigee altitude35,758.193 km
Semi-major axis42,166.082 km
Eccentricity0.0007056
Inclination0.016°
RAAN310.9114°
Arg. of periapsis350.8083°
True anomaly143.55785°
Mean anomaly143.5098°
Eccentric anomaly143.53383°
Mean motion0.25067 °/min
BSTARUnknown
Orbital period1436.16 mins
Loading historical data...
40892 neighbors
Authenticating...
Loading maneuver chart data...
Loading historical data...
Loading historical data...
Loading historical data...
Loading historical data...
Loading historical data...
Loading historical data...
Loading historical data...
Other satellites on launch #46 in the year 2015 (2015-09-12 UTC)

TJS-1 Visibility forecast

Observer location: undefined°, undefined

TJS-1 is not visible in the next 10 days
Span
Click to sort rows by Start time (UTC) header in descending order
Start Az.
Max El. time (UTC)
Max El. Az.
Max El.
End time (UTC)
End Az.
|